Tracking 19831 objects as of 23-Aug-2019
HD Live streaming from Space Station
objects crossing your sky now

COSMOS 2251 DEB

Track COSMOS 2251 DEB now!
10-day predictions


NORAD ID: 34924
Int'l Code: 1993-036ADV
Perigee: 695.3 km
Apogee: 797.2 km
Inclination: 74.0 °
Period: 99.6 minutes
Semi major axis: 7117 km
RCS: 0.0155 m2 (small)
Launch date: June 16, 1993
Source: Commonwealth of Independent States (former USSR) (CIS)
Launch site: PLESETSK MISSILE AND SPACE COMPLEX (PKMTR)

Note: This is SATELLITE DEBRIS
aabbcc
Your satellite tracking list
Your tracking list is empty




NASA's NSSDC Master Catalog

Two Line Element Set (TLE):
1 34924U 93036ADV 19234.02268667 +.00000195 +00000-0 +60944-4 0  9991
2 34924 074.0442 093.4325 0071632 036.0483 085.5255 14.45887089543257
Source of the keplerian elements: AFSPC